Regional Weather Roundup
Issued by NWS

Home | Current Version | Previous Version | Text Only | Print | Product List | Glossary On
Versions: 1 2 3 4 5 6 7 8 9 10 11 12 13 14 15 16 17 18 19 20 21 22 23 24 25 26 27
000
ASUS42 KKEY 240610
RWRKEY

FLORIDA REGIONAL WEATHER ROUNDUP FOR THE FLORIDA KEYS
NATIONAL WEATHER SERVICE KEY WEST FLORIDA
200 AM EDT THU APR 24 2014

...SOUTH FLORIDA AND THE KEYS...

CITY           SKY/WX    TMP DP  RH WIND       PRES   REMARKS
FORT MYERS     FAIR      69  63  81 NW3       29.95S
SW REGIONAL AP FAIR      67  63  87 CALM      29.95F
NAPLES         FAIR      71  67  87 CALM      29.94F
MIAMI          FAIR      71  65  81 NW5       29.95F
WEST KENDALL   FAIR      66  65  96 N5        29.95F
HOMESTEAD      FAIR      68  63  83 NW6       29.95F
MARATHON       FAIR      71  65  81 CALM      29.96S
BOCA CHICA NAS FAIR      71  64  78 CALM      29.96F
KEY WEST INTL  FAIR      72  65  78 CALM      29.96F

...INTERNATIONAL WEATHER...

CITY           SKY/WX    TMP DP  RH WIND       PRES   REMARKS
NASSAU BAHAMAS PTCLDY    73  70  88 CALM      29.96
CANCUN MEXICO  PTCLDY    66  64  94 CALM      29.93F
COZUMEL MEXICO PTCLDY    64  63  94 CALM      29.93F

ADJACENT COASTAL WATERS...

STATION/POSITION TIME  SKY/WX   TEMP    WIND        PRES    WAVE
                                AIR SEA DIR/SP/G            HT/PER
                 (UTC)          (F)     (DEG/KT/KT) (MB)    (FT/S)
PULASKI SHOAL LI NOT AVBL
SAND KEY         NOT AVBL
SOMBRERO KEY     0600            74      10/  4/  5 1015.0F
LONG KEY         0600            74 80  340/  4/  5 1015.2F
MOLASSES REEF    0600            72 78  350/  8/ 10 1014.3F
FOWEY ROCKS      0600            73 78  330/ 14/ 16 1014.0F
Buoy 42080       NOT AVBL

$$



USA.gov is the U.S. government's official web portal to all federal, state and local government web resources and services.